STARLINK-1121 (44929 NORAD) Tracking and Keplerian Element Data

This shows tracking and keplerian element data for the satellite.

Feedback or suggestion? Click here.




ElementValue
Catalog44929
NameSTARLINK-1121
Epoch Orbit1328
Epoch Day93.91667824
Epoch Year2020
RAAN353.6396
Inclination52.9992
Eccentricity0.0002425
Argument of Perigee71.4571
Mean Anonmoly10.3513
Mean Motion15.05618844
Decay Rate-0.00024175
L11 44929U 20001R 20093.91667824 -.00024175 00000-0 -16438-2 0 9993
L22 44929 52.9992 353.6396 0002425 71.4571 10.3513 15.05618844 13288

Live tracking and technical data element details for STARLINK-1121 (NORAD 44929). STARLINK-1121 can be tracked NOW for your location showing map with azimuth and elevation plus other details from your city location.

Track the satellite on the map from your city or location and see movement details for azimuth, elevation, latitude, longitude, range, height, and movement on the map or in text.







IsCatalogInMostPopularTable: catalog: 44929, numindb: 18
Update: records affected: 1



GetName: 44929 STARLINK-1121

Hit Count: updated at: Sun, 05 Apr 2020 19:59:13 GMT